User: anonymous   Login
Location: Unspecified
(0.0000°N, 0.0000°E)
Time: 08:05:33
(UTC+00:00)
Language:

OBJECT Y - Orbit

View from above orbital plane
View from above orbital plane
View from above satellite
View from above satellite

Ground track
Ground track

The orbit data is extracted from the following two-line orbital elements,

1 43133U 18004Y   20223.91914550 +.00000775 +00000-0 +35057-4 0  9993
2 43133 097.4427 294.3979 0008530 214.9410 145.1268 15.23903481143325
Epoch (UTC): 10 August 2020 22:03:34
Eccentricity: 0.0008530
inclination: 97.4427°
perigee height: 488 km
apogee height: 500 km
right ascension of ascending node: 294.3979°
argument of perigee: 214.9410°
revolutions per day: 15.23903481
mean anomaly at epoch: 145.1268°
orbit number at epoch: 14332

The dashed part of the orbit path shows where the satellite is in the earth's shadow,  

DLR